Location: Helion Bumpstead
(52.0500°N, 0.4000°E)
Time: 23:05:29
(UTC+00:00)

Cosmos 1725 Rocket - Pass Details

Date: 15 February 2026
Orbit: 962 x 989 km, 82.9° (Epoch: 11 March)

Event Time Altitude Azimuth Distance (km) Brightness Sun altitude
Rises 18:27:08 0° 344° (NNW) 3,680 7.2 -12.0°
Reaches altitude 10° 18:29:52 10° 335° (NNW) 2,732 6.6 -12.5°
Maximum altitude 18:35:19 33° 275° (W) 1,600 5.9 -13.3°
Drops below altitude 10° 18:40:45 10° 214° (SW) 2,732 6.8 -14.1°
Sets 18:43:31 0° 205° (SSW) 3,680 7.4 -14.6°
